,,,PA_Meas_PMT16A,,PR_Meas_QMR101_102,,RH_Meas_QMH101,,SR_Meas_QMS101,,TA_Meas_QMH101,,GenWind,,GenWind,
date,time,status,PA,status,PR,status,RH,status,SR,status,TA,status,DirAvg,status,SpdAvg,
2010-04-28, 00:00:04,VALID,1006.92,VALID,0,VALID,96.8868,VALID,0,VALID,24.1707,VALID,51,VALID,0.592188,
2010-04-28, 00:01:04,VALID,1006.91,VALID,0,VALID,96.8868,VALID,0,VALID,24.1513,VALID,27,VALID,0.586719,
2010-04-28, 00:02:04,VALID,1006.9,VALID,0,VALID,96.8715,VALID,0,VALID,24.1707,VALID,27,VALID,0.539844,
2010-04-28, 00:03:04,VALID,1006.92,VALID,0,VALID,96.8715,VALID,0,VALID,24.1902,VALID,27,VALID,0.302344,
2010-04-28, 00:04:04,VALID,1006.93,VALID,0,VALID,96.8486,VALID,0,VALID,24.1689,VALID,27,VALID,0.316016,
2010-04-28, 00:05:04,VALID,1006.92,VALID,0,VALID,96.8792,VALID,0,VALID,24.1689,VALID,27,VALID,0.319141,
2010-04-28, 00:06:04,VALID,1006.9,VALID,0,VALID,96.8715,VALID,0,VALID,24.1707,VALID,27,VALID,0.269141,
2010-04-28, 00:07:04,VALID,1006.9,VALID,0,VALID,96.8639,VALID,0,VALID,24.1513,VALID,27,VALID,0.427734,
2010-04-28, 00:08:04,VALID,1006.88,VALID,0,VALID,96.8944,VALID,0,VALID,24.1494,VALID,27,VALID,0.422266,
2010-04-28, 00:09:04,VALID,1006.86,VALID,0,VALID,96.8715,VALID,0,VALID,24.1494,VALID,27,VALID,0.454688,
2010-04-28, 00:10:04,VALID,1006.84,VALID,0,VALID,96.8944,VALID,0,VALID,24.13,VALID,27,VALID,0.388672,
2010-04-28, 00:11:04,VALID,1006.83,VALID,0,VALID,96.8868,VALID,0,VALID,24.1513,VALID,27,VALID,0.28125,
2010-04-28, 00:12:04,VALID,1006.83,VALID,0,VALID,96.8715,VALID,0,VALID,24.13,VALID,27,VALID,0,
2010-04-28, 00:13:04,VALID,1006.79,VALID,0,VALID,96.8792,VALID,0,VALID,24.1513,VALID,27,VALID,0,
2010-04-28, 00:14:04,VALID,1006.76,VALID,0,VALID,96.8944,VALID,0,VALID,24.1494,VALID,27,VALID,0,
2010-04-28, 00:15:04,VALID,1006.73,VALID,0,VALID,96.8715,VALID,0,VALID,24.1494,VALID,27,VALID,0,
2010-04-28, 00:16:04,VALID,1006.71,VALID,0,VALID,96.8868,VALID,0,VALID,24.1689,VALID,27,VALID,0,
2010-04-28, 00:17:04,VALID,1006.66,VALID,0,VALID,96.8868,VALID,0,VALID,24.1707,VALID,27,VALID,0,
2010-04-28, 00:18:04,VALID,1006.67,VALID,0,VALID,96.8715,VALID,0,VALID,24.1689,VALID,27,VALID,0,
2010-04-28, 00:19:04,VALID,1006.64,VALID,0,VALID,96.8944,VALID,0.100563,VALID,24.1494,VALID,27,VALID,0,
2010-04-28, 00:20:04,VALID,1006.64,VALID,0,VALID,96.9097,VALID,0,VALID,24.1707,VALID,27,VALID,0,
2010-04-28, 00:21:04,VALID,1006.66,VALID,0,VALID,96.8944,VALID,0,VALID,24.13,VALID,27,VALID,0,
2010-04-28, 00:22:04,VALID,1006.65,VALID,0,VALID,96.8868,VALID,0,VALID,24.1513,VALID,27,VALID,0,
2010-04-28, 00:23:04,VALID,1006.64,VALID,0,VALID,96.8944,VALID,0,VALID,24.1494,VALID,27,VALID,0,
2010-04-28, 00:24:04,VALID,1006.64,VALID,0,VALID,96.8868,VALID,0,VALID,24.1689,VALID,27,VALID,0,
2010-04-28, 00:25:04,VALID,1006.63,VALID,0,VALID,96.8715,VALID,0,VALID,24.2291,VALID,27,VALID,0,
2010-04-28, 00:26:04,VALID,1006.62,VALID,0,VALID,96.8563,VALID,0,VALID,24.2468,VALID,27,VALID,0,
2010-04-28, 00:27:04,VALID,1006.61,VALID,0,VALID,96.8486,VALID,0,VALID,24.2857,VALID,27,VALID,0,
2010-04-28, 00:28:04,VALID,1006.62,VALID,0,VALID,96.8258,VALID,0,VALID,24.3246,VALID,27,VALID,0,
2010-04-28, 00:29:04,VALID,1006.62,VALID,0,VALID,96.8486,VALID,0,VALID,24.3654,VALID,27,VALID,0,
2010-04-28, 00:30:04,VALID,1006.6,VALID,0,VALID,96.8563,VALID,0.100563,VALID,24.3636,VALID,27,VALID,0,
2010-04-28, 00:31:04,VALID,1006.55,VALID,0,VALID,96.8639,VALID,0,VALID,24.3636,VALID,27,VALID,0,
2010-04-28, 00:32:04,VALID,1006.56,VALID,0,VALID,96.8639,VALID,0,VALID,24.3441,VALID,27,VALID,0,
2010-04-28, 00:33:04,VALID,1006.48,VALID,0,VALID,96.8868,VALID,0,VALID,24.3052,VALID,27,VALID,0,
2010-04-28, 00:34:04,VALID,1006.48,VALID,0,VALID,96.9097,VALID,0,VALID,24.2875,VALID,27,VALID,0,
2010-04-28, 00:35:04,VALID,1006.44,VALID,0,VALID,96.9173,VALID,0,VALID,24.2291,VALID,27,VALID,0,
2010-04-28, 00:36:04,VALID,1006.38,VALID,0,VALID,96.9173,VALID,0,VALID,24.2097,VALID,26,VALID,0,
2010-04-28, 00:37:04,VALID,1006.37,VALID,0,VALID,96.9326,VALID,0,VALID,24.1318,VALID,21,VALID,0,
2010-04-28, 00:38:04,VALID,1006.34,VALID,0,VALID,96.9402,VALID,0,VALID,24.1105,VALID,17,VALID,0.169531,
2010-04-28, 00:39:04,VALID,1006.3,VALID,0,VALID,96.9249,VALID,0,VALID,24.1318,VALID,6,VALID,0.6625,
2010-04-28, 00:40:04,VALID,1006.28,VALID,0,VALID,96.9326,VALID,0,VALID,24.1318,VALID,359,VALID,0.625391,
2010-04-28, 00:41:04,VALID,1006.24,VALID,0,VALID,96.9097,VALID,0,VALID,24.1105,VALID,355,VALID,0.502734,
2010-04-28, 00:42:04,VALID,1006.24,VALID,0,VALID,96.902,VALID,0,VALID,24.1902,VALID,353,VALID,0.483984,
2010-04-28, 00:43:04,VALID,1006.22,VALID,0,VALID,96.902,VALID,0,VALID,24.1689,VALID,353,VALID,0.366797,
2010-04-28, 00:44:04,VALID,1006.23,VALID,0,VALID,96.8792,VALID,0,VALID,24.2291,VALID,353,VALID,0.436328,
2010-04-28, 00:45:04,VALID,1006.21,VALID,0,VALID,96.9097,VALID,0.100563,VALID,24.1671,VALID,353,VALID,0.567187,
2010-04-28, 00:46:04,VALID,1006.18,VALID,0,VALID,96.9249,VALID,0,VALID,24.1513,VALID,353,VALID,0.578516,
2010-04-28, 00:47:04,VALID,1006.15,VALID,0,VALID,96.9173,VALID,0,VALID,24.1513,VALID,353,VALID,0.536328,
2010-04-28, 00:48:04,VALID,1006.16,VALID,0,VALID,96.9173,VALID,0,VALID,24.1513,VALID,353,VALID,0.441016,
2010-04-28, 00:49:04,VALID,1006.12,VALID,0,VALID,96.9249,VALID,0,VALID,24.13,VALID,353,VALID,0.332031,
2010-04-28, 00:50:04,VALID,1006.13,VALID,0,VALID,96.9173,VALID,0,VALID,24.1105,VALID,353,VALID,0.2625,
2010-04-28, 00:51:04,VALID,1006.14,VALID,0,VALID,96.9249,VALID,0,VALID,24.1123,VALID,353,VALID,0.138672,
2010-04-28, 00:52:04,VALID,1006.1,VALID,0,VALID,96.9402,VALID,0,VALID,24.0521,VALID,353,VALID,0.075,
2010-04-28, 00:53:04,VALID,1006.09,VALID,0,VALID,96.9249,VALID,0.100563,VALID,24.0716,VALID,353,VALID,0,
2010-04-28, 00:54:04,VALID,1006.05,VALID,0,VALID,96.9478,VALID,0,VALID,24.0929,VALID,353,VALID,0,
2010-04-28, 00:55:04,VALID,1006.06,VALID,0,VALID,96.9402,VALID,0,VALID,24.0929,VALID,353,VALID,0.227734,
2010-04-28, 00:56:04,VALID,1006.02,VALID,0,VALID,96.9326,VALID,0,VALID,24.0929,VALID,353,VALID,0.374609,
2010-04-28, 00:57:04,VALID,1006.03,VALID,0,VALID,96.9249,VALID,0,VALID,24.0734,VALID,353,VALID,0.50625,
2010-04-28, 00:58:04,VALID,1006.03,VALID,0,VALID,96.9402,VALID,0,VALID,24.0734,VALID,353,VALID,0.461328,
2010-04-28, 00:59:04,VALID,1005.98,VALID,0,VALID,96.9249,VALID,0,VALID,24.0326,VALID,353,VALID,0.502344,
2010-04-28, 01:00:04,VALID,1005.98,VALID,0,VALID,96.9173,VALID,0,VALID,24.0539,VALID,353,VALID,0.603125,
2010-04-28, 01:01:04,VALID,1005.93,VALID,0,VALID,96.9402,VALID,0,VALID,24.0132,VALID,353,VALID,0.492969,
2010-04-28, 01:02:04,VALID,1005.89,VALID,0,VALID,96.9097,VALID,0,VALID,24.0539,VALID,353,VALID,0.367969,
2010-04-28, 01:03:04,VALID,1005.87,VALID,0,VALID,96.9402,VALID,0,VALID,24.0521,VALID,353,VALID,0.466406,
2010-04-28, 01:04:04,VALID,1005.83,VALID,0,VALID,96.9478,VALID,0,VALID,24.0326,VALID,353,VALID,0.375781,
2010-04-28, 01:05:04,VALID,1005.84,VALID,0,VALID,96.9554,VALID,0,VALID,23.9937,VALID,353,VALID,0.345703,
2010-04-28, 01:06:04,VALID,1005.82,VALID,0,VALID,96.9554,VALID,0,VALID,23.9955,VALID,353,VALID,0.25625,
2010-04-28, 01:07:04,VALID,1005.8,VALID,0,VALID,96.9478,VALID,0,VALID,23.9548,VALID,353,VALID,0,
2010-04-28, 01:08:04,VALID,1005.76,VALID,0,VALID,96.9631,VALID,0,VALID,23.9761,VALID,353,VALID,0.133203,
2010-04-28, 01:09:04,VALID,1005.76,VALID,0,VALID,96.9631,VALID,0,VALID,23.9566,VALID,353,VALID,0,
2010-04-28, 01:10:04,VALID,1005.75,VALID,0,VALID,96.9326,VALID,0,VALID,23.9548,VALID,353,VALID,0.198828,
2010-04-28, 01:11:04,VALID,1005.73,VALID,0,VALID,96.9326,VALID,0,VALID,24.0132,VALID,353,VALID,0.4125,
2010-04-28, 01:12:04,VALID,1005.73,VALID,0,VALID,96.8944,VALID,0,VALID,24.0521,VALID,353,VALID,0.336719,
2010-04-28, 01:13:04,VALID,1005.73,VALID,0,VALID,96.8868,VALID,0,VALID,24.1123,VALID,353,VALID,0.344922,
2010-04-28, 01:14:04,VALID,1005.69,VALID,0,VALID,96.9249,VALID,0,VALID,24.0539,VALID,353,VALID,0.537109,
2010-04-28, 01:15:04,VALID,1005.67,VALID,0,VALID,96.9631,VALID,0,VALID,24.015,VALID,353,VALID,0.506641,
2010-04-28, 01:16:04,VALID,1005.69,VALID,0,VALID,96.9402,VALID,0,VALID,24.0345,VALID,353,VALID,0.549219,
2010-04-28, 01:17:04,VALID,1005.67,VALID,0,VALID,96.9554,VALID,0,VALID,24.015,VALID,353,VALID,0.500391,
2010-04-28, 01:18:04,VALID,1005.7,VALID,0,VALID,96.9478,VALID,0,VALID,24.015,VALID,353,VALID,0.398438,
2010-04-28, 01:19:04,VALID,1005.68,VALID,0,VALID,96.9249,VALID,0,VALID,24.0132,VALID,353,VALID,0.339844,
2010-04-28, 01:20:04,VALID,1005.66,VALID,0,VALID,96.9707,VALID,0,VALID,24.015,VALID,353,VALID,0.271484,
2010-04-28, 01:21:04,VALID,1005.66,VALID,0,VALID,96.9478,VALID,0,VALID,24.0132,VALID,353,VALID,0.177344,
2010-04-28, 01:22:04,VALID,1005.68,VALID,0,VALID,96.9554,VALID,0,VALID,23.9742,VALID,353,VALID,0.252734,
2010-04-28, 01:23:04,VALID,1005.68,VALID,0,VALID,96.9707,VALID,0,VALID,23.9742,VALID,353,VALID,0.361719,
2010-04-28, 01:24:04,VALID,1005.67,VALID,0,VALID,96.9402,VALID,0,VALID,23.9955,VALID,353,VALID,0.321875,
2010-04-28, 01:25:04,VALID,1005.67,VALID,0,VALID,96.9478,VALID,0,VALID,23.9937,VALID,353,VALID,0.371094,
2010-04-28, 01:26:04,VALID,1005.66,VALID,0,VALID,96.9554,VALID,0,VALID,23.9937,VALID,353,VALID,0.428125,
2010-04-28, 01:27:04,VALID,1005.64,VALID,0,VALID,96.9631,VALID,0,VALID,24.015,VALID,353,VALID,0.394922,
2010-04-28, 01:28:04,VALID,1005.66,VALID,0,VALID,96.9554,VALID,0.100563,VALID,23.9919,VALID,353,VALID,0.450391,
2010-04-28, 01:29:04,VALID,1005.64,VALID,0,VALID,96.9478,VALID,0,VALID,24.0132,VALID,353,VALID,0.449219,
2010-04-28, 01:30:04,VALID,1005.64,VALID,0,VALID,96.9631,VALID,0,VALID,24.0132,VALID,353,VALID,0.357422,
2010-04-28, 01:31:04,VALID,1005.67,VALID,0,VALID,96.9554,VALID,0,VALID,24.015,VALID,353,VALID,0.0429688,
2010-04-28, 01:32:04,VALID,1005.66,VALID,0,VALID,96.9707,VALID,0,VALID,23.9937,VALID,353,VALID,0,
2010-04-28, 01:33:04,VALID,1005.68,VALID,0,VALID,96.9631,VALID,0,VALID,23.9937,VALID,353,VALID,0,
2010-04-28, 01:34:04,VALID,1005.67,VALID,0,VALID,96.9554,VALID,0,VALID,23.9742,VALID,353,VALID,0,
2010-04-28, 01:35:04,VALID,1005.67,VALID,0,VALID,96.9707,VALID,0,VALID,23.9742,VALID,353,VALID,0,
2010-04-28, 01:36:04,VALID,1005.66,VALID,0,VALID,96.9707,VALID,0,VALID,23.9742,VALID,353,VALID,0,
2010-04-28, 01:37:04,VALID,1005.66,VALID,0,VALID,96.9402,VALID,0,VALID,23.9937,VALID,353,VALID,0.275,
2010-04-28, 01:38:04,VALID,1005.7,VALID,0,VALID,96.9478,VALID,0,VALID,24.0326,VALID,353,VALID,0.323047,
2010-04-28, 01:39:04,VALID,1005.65,VALID,0,VALID,96.9249,VALID,0,VALID,24.0521,VALID,353,VALID,0.266797,
2010-04-28, 01:40:04,VALID,1005.64,VALID,0,VALID,96.9326,VALID,0,VALID,24.0929,VALID,353,VALID,0.322266,
2010-04-28, 01:41:04,VALID,1005.63,VALID,0,VALID,96.9554,VALID,0,VALID,24.0326,VALID,353,VALID,0.354297,
2010-04-28, 01:42:04,VALID,1005.65,VALID,0,VALID,96.986,VALID,0,VALID,23.9937,VALID,353,VALID,0.419922,
2010-04-28, 01:43:04,VALID,1005.62,VALID,0,VALID,96.9783,VALID,0,VALID,23.9955,VALID,353,VALID,0.533594,
2010-04-28, 01:44:04,VALID,1005.58,VALID,0,VALID,96.986,VALID,0,VALID,23.9955,VALID,353,VALID,0.423438,
2010-04-28, 01:45:04,VALID,1005.59,VALID,0,VALID,96.9783,VALID,0,VALID,23.9742,VALID,353,VALID,0.664844,
2010-04-28, 01:46:04,VALID,1005.56,VALID,0,VALID,96.9554,VALID,0,VALID,24.0132,VALID,353,VALID,0.720703,
2010-04-28, 01:47:04,VALID,1005.58,VALID,0,VALID,96.9554,VALID,0,VALID,24.0345,VALID,353,VALID,0.741406,
2010-04-28, 01:48:04,VALID,1005.54,VALID,0,VALID,96.9631,VALID,0,VALID,24.015,VALID,353,VALID,0.562109,
2010-04-28, 01:49:04,VALID,1005.55,VALID,0,VALID,96.9783,VALID,0,VALID,24.015,VALID,353,VALID,0.510938,
2010-04-28, 01:50:04,VALID,1005.56,VALID,0,VALID,96.9783,VALID,0,VALID,24.015,VALID,353,VALID,0.348437,
2010-04-28, 01:51:04,VALID,1005.53,VALID,0,VALID,96.9783,VALID,0,VALID,23.9548,VALID,353,VALID,0.585938,
2010-04-28, 01:52:04,VALID,1005.55,VALID,0,VALID,96.9936,VALID,0,VALID,23.9724,VALID,353,VALID,0.592188,
2010-04-28, 01:53:04,VALID,1005.58,VALID,0,VALID,96.9783,VALID,0,VALID,23.9937,VALID,353,VALID,0.600781,
2010-04-28, 01:54:04,VALID,1005.55,VALID,0,VALID,96.9554,VALID,0,VALID,23.9937,VALID,353,VALID,0.396875,
2010-04-28, 01:55:04,VALID,1005.53,VALID,0,VALID,96.9707,VALID,0,VALID,23.9761,VALID,353,VALID,0.457031,
2010-04-28, 01:56:04,VALID,1005.54,VALID,0,VALID,96.9783,VALID,0,VALID,24.015,VALID,353,VALID,0.396484,
2010-04-28, 01:57:04,VALID,1005.55,VALID,0,VALID,96.9707,VALID,0,VALID,23.9742,VALID,353,VALID,0.352344,
2010-04-28, 01:58:04,VALID,1005.55,VALID,0,VALID,96.986,VALID,0,VALID,23.9742,VALID,353,VALID,0.246094,
2010-04-28, 01:59:04,VALID,1005.57,VALID,0,VALID,96.986,VALID,0,VALID,23.9955,VALID,353,VALID,0.321484,
2010-04-28, 02:00:04,VALID,1005.56,VALID,0,VALID,96.9707,VALID,0,VALID,24.015,VALID,353,VALID,0.434375,
2010-04-28, 02:01:04,VALID,1005.55,VALID,0,VALID,96.9631,VALID,0,VALID,24.0539,VALID,353,VALID,0.436328,
2010-04-28, 02:02:04,VALID,1005.5,VALID,0,VALID,96.9097,VALID,0,VALID,24.1123,VALID,353,VALID,0.467578,
2010-04-28, 02:03:04,VALID,1005.49,VALID,0,VALID,96.902,VALID,0,VALID,24.1707,VALID,353,VALID,0.255859,
2010-04-28, 02:04:04,VALID,1005.47,VALID,0,VALID,96.8868,VALID,0,VALID,24.2273,VALID,353,VALID,0.286719,
2010-04-28, 02:05:04,VALID,1005.46,VALID,0,VALID,96.902,VALID,0,VALID,24.2681,VALID,353,VALID,0.196875,
2010-04-28, 02:06:04,VALID,1005.45,VALID,0,VALID,96.9173,VALID,0,VALID,24.2468,VALID,353,VALID,0,
2010-04-28, 02:07:04,VALID,1005.47,VALID,0,VALID,96.9554,VALID,0,VALID,24.1707,VALID,353,VALID,0.00351562,
2010-04-28, 02:08:04,VALID,1005.44,VALID,0,VALID,96.986,VALID,0,VALID,24.1123,VALID,353,VALID,0.176563,
2010-04-28, 02:09:04,VALID,1005.44,VALID,0,VALID,96.9783,VALID,0,VALID,24.0521,VALID,353,VALID,0.287109,
2010-04-28, 02:10:04,VALID,1005.44,VALID,0,VALID,97.0088,VALID,0,VALID,24.0345,VALID,353,VALID,0.248437,
2010-04-28, 02:11:04,VALID,1005.46,VALID,0,VALID,96.9707,VALID,0,VALID,24.0132,VALID,353,VALID,0.356641,
2010-04-28, 02:12:04,VALID,1005.45,VALID,0,VALID,96.9783,VALID,0,VALID,24.015,VALID,353,VALID,0.350391,
2010-04-28, 02:13:04,VALID,1005.46,VALID,0,VALID,96.9936,VALID,0,VALID,23.9742,VALID,353,VALID,0.332422,
2010-04-28, 02:14:04,VALID,1005.44,VALID,0,VALID,96.986,VALID,0,VALID,23.9955,VALID,353,VALID,0.275781,
2010-04-28, 02:15:04,VALID,1005.41,VALID,0,VALID,96.9936,VALID,0,VALID,23.9955,VALID,353,VALID,0.295703,
2010-04-28, 02:16:04,VALID,1005.41,VALID,0,VALID,96.9783,VALID,0,VALID,23.9548,VALID,353,VALID,0.377344,
2010-04-28, 02:17:04,VALID,1005.39,VALID,0,VALID,97.0012,VALID,0,VALID,23.9955,VALID,353,VALID,0.377344,
2010-04-28, 02:18:04,VALID,1005.38,VALID,0,VALID,96.9936,VALID,0,VALID,23.9761,VALID,353,VALID,0.417188,
2010-04-28, 02:19:04,VALID,1005.34,VALID,0,VALID,97.0165,VALID,0,VALID,23.9566,VALID,353,VALID,0.579687,
2010-04-28, 02:20:04,VALID,1005.35,VALID,0,VALID,96.986,VALID,0,VALID,23.9371,VALID,353,VALID,0.490234,
2010-04-28, 02:21:04,VALID,1005.32,VALID,0,VALID,97.0012,VALID,0,VALID,23.9353,VALID,353,VALID,0.399609,
2010-04-28, 02:22:04,VALID,1005.28,VALID,0,VALID,96.9707,VALID,0,VALID,23.9548,VALID,353,VALID,0.148828,
2010-04-28, 02:23:04,VALID,1005.28,VALID,0,VALID,96.9707,VALID,0,VALID,24.0168,VALID,353,VALID,0,
2010-04-28, 02:24:04,VALID,1005.29,VALID,0,VALID,96.9783,VALID,0,VALID,23.9955,VALID,353,VALID,0.134375,
2010-04-28, 02:25:04,VALID,1005.3,VALID,0,VALID,96.9936,VALID,0,VALID,23.9548,VALID,353,VALID,0.134375,
2010-04-28, 02:26:04,VALID,1005.28,VALID,0,VALID,96.9707,VALID,0,VALID,23.9548,VALID,353,VALID,0.00351562,
2010-04-28, 02:27:04,VALID,1005.27,VALID,0,VALID,96.9936,VALID,0,VALID,23.9159,VALID,353,VALID,0.28125,
2010-04-28, 02:28:04,VALID,1005.29,VALID,0,VALID,97.0012,VALID,0,VALID,23.9371,VALID,353,VALID,0.228125,
2010-04-28, 02:29:04,VALID,1005.29,VALID,0,VALID,96.9707,VALID,0,VALID,23.9566,VALID,353,VALID,0.183203,
2010-04-28, 02:30:04,VALID,1005.27,VALID,0,VALID,96.9783,VALID,0,VALID,23.9566,VALID,353,VALID,0.262109,
2010-04-28, 02:31:04,VALID,1005.26,VALID,0,VALID,97.0088,VALID,0,VALID,23.9566,VALID,353,VALID,0.235547,
2010-04-28, 02:32:04,VALID,1005.26,VALID,0,VALID,97.0088,VALID,0,VALID,23.9389,VALID,353,VALID,0.369922,
2010-04-28, 02:33:04,VALID,1005.26,VALID,0,VALID,97.0317,VALID,0,VALID,23.8982,VALID,353,VALID,0.534766,
2010-04-28, 02:34:04,VALID,1005.26,VALID,0,VALID,97.0317,VALID,0,VALID,23.8982,VALID,353,VALID,0.505469,
2010-04-28, 02:35:04,VALID,1005.26,VALID,0,VALID,97.0241,VALID,0,VALID,23.8593,VALID,353,VALID,0.450391,
2010-04-28, 02:36:04,VALID,1005.23,VALID,0,VALID,97.0317,VALID,0,VALID,23.8398,VALID,353,VALID,0.3875,
2010-04-28, 02:37:04,VALID,1005.24,VALID,0,VALID,97.0241,VALID,0,VALID,23.8185,VALID,353,VALID,0.356641,
2010-04-28, 02:38:04,VALID,1005.23,VALID,0,VALID,97.0317,VALID,0,VALID,23.7991,VALID,353,VALID,0.316797,
2010-04-28, 02:39:04,VALID,1005.22,VALID,0,VALID,97.0165,VALID,0,VALID,23.8398,VALID,353,VALID,0.430078,
2010-04-28, 02:40:04,VALID,1005.23,VALID,0,VALID,97.0241,VALID,0,VALID,23.8185,VALID,353,VALID,0.542188,
2010-04-28, 02:41:04,VALID,1005.22,VALID,0,VALID,97.0088,VALID,0,VALID,23.7991,VALID,353,VALID,0.535156,
2010-04-28, 02:42:04,VALID,1005.22,VALID,0,VALID,97.0241,VALID,0,VALID,23.8398,VALID,353,VALID,0.589453,
2010-04-28, 02:43:04,VALID,1005.21,VALID,0,VALID,97.0317,VALID,0,VALID,23.8185,VALID,353,VALID,0.521094,
2010-04-28, 02:44:04,VALID,1005.22,VALID,0,VALID,97.0088,VALID,0,VALID,23.8203,VALID,353,VALID,0.480859,
2010-04-28, 02:45:04,VALID,1005.24,VALID,0,VALID,97.0317,VALID,0,VALID,23.8203,VALID,353,VALID,0.385938,
2010-04-28, 02:46:04,VALID,1005.22,VALID,0,VALID,97.0241,VALID,0,VALID,23.8185,VALID,353,VALID,0.297656,
2010-04-28, 02:47:04,VALID,1005.24,VALID,0,VALID,97.0088,VALID,0,VALID,23.8398,VALID,353,VALID,0.245312,
2010-04-28, 02:48:04,VALID,1005.22,VALID,0,VALID,97.0317,VALID,0,VALID,23.7991,VALID,353,VALID,0.147266,
2010-04-28, 02:49:04,VALID,1005.2,VALID,0,VALID,97.0165,VALID,0,VALID,23.8185,VALID,353,VALID,0.304688,
2010-04-28, 02:50:04,VALID,1005.2,VALID,0,VALID,97.0241,VALID,0,VALID,23.8398,VALID,353,VALID,0.26875,
2010-04-28, 02:51:04,VALID,1005.21,VALID,0,VALID,97.0241,VALID,0,VALID,23.7991,VALID,353,VALID,0.392969,
2010-04-28, 02:52:04,VALID,1005.2,VALID,0,VALID,97.0165,VALID,0,VALID,23.7796,VALID,353,VALID,0.391797,
2010-04-28, 02:53:04,VALID,1005.2,VALID,0,VALID,97.0317,VALID,0,VALID,23.8009,VALID,353,VALID,0.426953,
2010-04-28, 02:54:04,VALID,1005.2,VALID,0,VALID,97.0317,VALID,0,VALID,23.8009,VALID,353,VALID,0.328125,
2010-04-28, 02:55:04,VALID,1005.24,VALID,0,VALID,97.0241,VALID,0,VALID,23.7814,VALID,353,VALID,0.371484,
2010-04-28, 02:56:04,VALID,1005.25,VALID,0,VALID,97.0394,VALID,0,VALID,23.7619,VALID,353,VALID,0.397266,
2010-04-28, 02:57:04,VALID,1005.24,VALID,0,VALID,97.0394,VALID,0,VALID,23.7796,VALID,353,VALID,0.447656,
2010-04-28, 02:58:04,VALID,1005.26,VALID,0,VALID,97.0088,VALID,0,VALID,23.838,VALID,353,VALID,0.291016,
2010-04-28, 02:59:04,VALID,1005.26,VALID,0,VALID,96.9783,VALID,0,VALID,23.8787,VALID,353,VALID,0.288281,
2010-04-28, 03:00:04,VALID,1005.26,VALID,0,VALID,97.0241,VALID,0,VALID,23.838,VALID,353,VALID,0.207813,
2010-04-28, 03:01:04,VALID,1005.26,VALID,0,VALID,97.0165,VALID,0,VALID,23.8398,VALID,353,VALID,0.267578,
2010-04-28, 03:02:04,VALID,1005.28,VALID,0,VALID,97.0241,VALID,0,VALID,23.8398,VALID,353,VALID,0.413281,
2010-04-28, 03:03:04,VALID,1005.26,VALID,0,VALID,97.0088,VALID,0,VALID,23.7991,VALID,353,VALID,0.288672,
2010-04-28, 03:04:04,VALID,1005.26,VALID,0,VALID,97.0317,VALID,0,VALID,23.8203,VALID,353,VALID,0.35625,
2010-04-28, 03:05:04,VALID,1005.27,VALID,0,VALID,97.0241,VALID,0,VALID,23.7796,VALID,353,VALID,0.388672,
2010-04-28, 03:06:04,VALID,1005.27,VALID,0,VALID,97.0394,VALID,0,VALID,23.8009,VALID,353,VALID,0.451562,
2010-04-28, 03:07:04,VALID,1005.27,VALID,0,VALID,97.047,VALID,0,VALID,23.7796,VALID,353,VALID,0.377344,
2010-04-28, 03:08:04,VALID,1005.31,VALID,0,VALID,97.0622,VALID,0,VALID,23.7619,VALID,353,VALID,0.465234,
2010-04-28, 03:09:04,VALID,1005.3,VALID,0,VALID,97.0622,VALID,0,VALID,23.7212,VALID,353,VALID,0.651563,
2010-04-28, 03:10:04,VALID,1005.29,VALID,0,VALID,97.0165,VALID,0,VALID,23.7796,VALID,353,VALID,0.486328,
2010-04-28, 03:11:04,VALID,1005.28,VALID,0,VALID,97.0394,VALID,0,VALID,23.7407,VALID,353,VALID,0.555859,
2010-04-28, 03:12:04,VALID,1005.29,VALID,0,VALID,97.047,VALID,0,VALID,23.6823,VALID,353,VALID,0.480078,
2010-04-28, 03:13:04,VALID,1005.3,VALID,0,VALID,97.0775,VALID,0,VALID,23.6628,VALID,353,VALID,0.508203,
2010-04-28, 03:14:04,VALID,1005.3,VALID,0,VALID,97.0546,VALID,0,VALID,23.6841,VALID,353,VALID,0.535547,
2010-04-28, 03:15:04,VALID,1005.29,VALID,0,VALID,97.0546,VALID,0.100563,VALID,23.7017,VALID,353,VALID,0.341406,
2010-04-28, 03:16:04,VALID,1005.31,VALID,0,VALID,97.0546,VALID,0,VALID,23.6628,VALID,353,VALID,0.363281,
2010-04-28, 03:17:04,VALID,1005.28,VALID,0,VALID,97.047,VALID,0,VALID,23.6628,VALID,353,VALID,0.326172,
2010-04-28, 03:18:04,VALID,1005.3,VALID,0,VALID,97.0622,VALID,0,VALID,23.6841,VALID,353,VALID,0.307813,
2010-04-28, 03:19:04,VALID,1005.26,VALID,0,VALID,97.0546,VALID,0,VALID,23.6434,VALID,353,VALID,0.313281,
2010-04-28, 03:20:04,VALID,1005.26,VALID,0,VALID,97.0699,VALID,0,VALID,23.6239,VALID,353,VALID,0.491016,
2010-04-28, 03:21:04,VALID,1005.26,VALID,0,VALID,97.0775,VALID,0,VALID,23.6239,VALID,353,VALID,0.565625,
2010-04-28, 03:22:04,VALID,1005.28,VALID,0,VALID,97.0699,VALID,0,VALID,23.6434,VALID,353,VALID,0.391406,
2010-04-28, 03:23:04,VALID,1005.26,VALID,0,VALID,97.0699,VALID,0,VALID,23.6239,VALID,353,VALID,0.598047,
2010-04-28, 03:24:04,VALID,1005.29,VALID,0,VALID,97.047,VALID,0,VALID,23.6239,VALID,353,VALID,0.444141,
2010-04-28, 03:25:04,VALID,1005.28,VALID,0,VALID,97.0622,VALID,0,VALID,23.6239,VALID,353,VALID,0.432813,
2010-04-28, 03:26:04,VALID,1005.29,VALID,0,VALID,97.0699,VALID,0,VALID,23.6026,VALID,353,VALID,0.155078,
2010-04-28, 03:27:04,VALID,1005.31,VALID,0,VALID,97.0546,VALID,0,VALID,23.6239,VALID,353,VALID,0.0492188,
2010-04-28, 03:28:04,VALID,1005.31,VALID,0,VALID,97.047,VALID,0.100563,VALID,23.6434,VALID,353,VALID,0,
2010-04-28, 03:29:04,VALID,1005.3,VALID,0,VALID,97.0241,VALID,0,VALID,23.6628,VALID,353,VALID,0,
2010-04-28, 03:30:04,VALID,1005.31,VALID,0,VALID,97.047,VALID,0,VALID,23.7017,VALID,353,VALID,0.003125,
2010-04-28, 03:31:04,VALID,1005.34,VALID,0,VALID,97.0622,VALID,0,VALID,23.7035,VALID,353,VALID,0.229687,
2010-04-28, 03:32:04,VALID,1005.32,VALID,0,VALID,97.047,VALID,0,VALID,23.6823,VALID,353,VALID,0.221484,
2010-04-28, 03:33:04,VALID,1005.34,VALID,0,VALID,97.0546,VALID,0,VALID,23.7035,VALID,353,VALID,0.383203,
2010-04-28, 03:34:04,VALID,1005.33,VALID,0,VALID,97.0546,VALID,0,VALID,23.7017,VALID,353,VALID,0.501953,
2010-04-28, 03:35:04,VALID,1005.35,VALID,0,VALID,97.047,VALID,0,VALID,23.723,VALID,353,VALID,0.525781,
2010-04-28, 03:36:04,VALID,1005.34,VALID,0,VALID,97.0241,VALID,0,VALID,23.7425,VALID,353,VALID,0.485547,
2010-04-28, 03:37:04,VALID,1005.32,VALID,0,VALID,97.047,VALID,0,VALID,23.7212,VALID,353,VALID,0.464063,
2010-04-28, 03:38:04,VALID,1005.33,VALID,0,VALID,97.0699,VALID,0,VALID,23.723,VALID,353,VALID,0.332031,
2010-04-28, 03:39:04,VALID,1005.31,VALID,0,VALID,97.0394,VALID,0,VALID,23.6823,VALID,353,VALID,0.351172,
2010-04-28, 03:40:04,VALID,1005.31,VALID,0,VALID,97.0546,VALID,0,VALID,23.6628,VALID,353,VALID,0.389062,
2010-04-28, 03:41:04,VALID,1005.29,VALID,0,VALID,97.047,VALID,0,VALID,23.7035,VALID,353,VALID,0.427734,
2010-04-28, 03:42:04,VALID,1005.25,VALID,0,VALID,97.0775,VALID,0,VALID,23.7035,VALID,353,VALID,0.455469,
2010-04-28, 03:43:04,VALID,1005.26,VALID,0,VALID,97.0394,VALID,0,VALID,23.7017,VALID,353,VALID,0.446094,
2010-04-28, 03:44:04,VALID,1005.26,VALID,0,VALID,97.0394,VALID,0,VALID,23.7017,VALID,353,VALID,0.39375,
2010-04-28, 03:45:04,VALID,1005.28,VALID,0,VALID,97.0546,VALID,0.100563,VALID,23.6823,VALID,353,VALID,0.392969,
2010-04-28, 03:46:04,VALID,1005.28,VALID,0,VALID,97.0546,VALID,0,VALID,23.6628,VALID,353,VALID,0.405469,